GW5385 Weather Reports


time (UTC)temp
C
wind
direction
speed
KPH
gust
KPH
rain 1hr
cm
rain 24hr
cm
rain mn
cm
humidity
%
barometer
mb
20260510014552 17 181 1.6 3.2 0.00 0.00 0.00 43 1019.2
20260510013101 17 224 1.6 4.8 0.00 0.00 0.00 42 1019.3
20260510011549 17 250 0.0 8.0 0.00 0.00 0.00 41 1019.3
20260510010048 18 195 3.2 9.7 0.00 0.00 0.00 40 1019.4
20260510004545 18 252 8.0 12.9 0.00 0.00 0.00 40 1019.4
20260510003049 18 228 0.0 9.7 0.00 0.00 0.00 41 1019.4
20260510001544 17 225 1.6 8.0 0.00 0.00 0.00 41 1019.4
20260510000044 17 262 3.2 12.9 0.00 0.00 0.00 40 1019.4
20260509234542 18 246 9.7 17.7 0.00 0.00 0.00 39 1019.3
20260509233041 18 261 1.6 12.9 0.00 0.00 0.00 39 1019.2
20260509231543 18 269 6.4 17.7 0.00 0.00 0.00 38 1019.2
20260509230042 18 236 6.4 12.9 0.00 0.00 0.00 38 1019.4
20260509224538 18 293 4.8 9.7 0.00 0.00 0.00 38 1019.4
20260509223036 18 235 3.2 11.3 0.00 0.00 0.00 37 1019.4
20260509221535 18 130 1.6 8.0 0.00 0.00 0.00 39 1019.6
20260509220037 17 254 3.2 9.7 0.00 0.00 0.00 38 1019.7
20260509214533 17 317 0.0 3.2 0.00 0.00 0.00 39 1019.8
20260509213030 17 103 3.2 6.4 0.00 0.00 0.00 38 1019.8
20260509211529 17 195 1.6 9.7 0.00 0.00 0.00 38 1019.8
20260509210030 17 249 0.0 4.8 0.00 0.00 0.00 38 1019.9
20260509204526 17 273 1.6 8.0 0.00 0.00 0.00 39 1020.0
20260509203027 17 283 4.8 8.0 0.00 0.00 0.00 38 1019.9
20260509201524 17 312 4.8 9.7 0.00 0.00 0.00 37 1019.7
20260509200024 17 357 1.6 9.7 0.00 0.00 0.00 37 1019.7
20260509194524 17 184 3.2 16.1 0.00 0.00 0.00 37 1019.8
20260509193021 17 260 3.2 12.9 0.00 0.00 0.00 37 1019.8
20260509191519 17 217 1.6 8.0 0.00 0.00 0.00 36 1019.9
20260509190017 17 178 1.6 12.9 0.00 0.00 0.00 37 1019.9
20260509184520 17 233 4.8 9.7 0.00 0.00 0.00 38 1019.9
20260509183015 17 231 3.2 11.3 0.00 0.00 0.00 37 1020.0
20260509181512 17 216 8.0 17.7 0.00 0.00 0.00 37 1019.8
20260509180009 17 127 4.8 11.3 0.00 0.00 0.00 37 1019.7
20260509174507 17 210 1.6 6.4 0.00 0.00 0.00 38 1019.7
20260509173004 16 221 3.2 8.0 0.00 0.00 0.00 38 1019.6
20260509171502 16 162 0.0 6.4 0.00 0.00 0.00 40 1019.6
20260509170002 16 229 1.6 11.3 0.00 0.00 0.00 40 1019.6
20260509164558 16 243 4.8 11.3 0.00 0.00 0.00 39 1019.6
20260509163110 16 257 0.0 6.4 0.00 0.00 0.00 39 1019.5
20260509161601 16 79 3.2 6.4 0.00 0.00 0.00 38 1019.4
20260509160054 16 185 0.0 4.8 0.00 0.00 0.00 39 1019.2
20260509154549 16 345 1.6 8.0 0.00 0.00 0.00 39 1019.1
20260509153044 15 16 0.0 4.8 0.00 0.00 0.00 43 1019.1
20260509151541 14 24 0.0 6.4 0.00 0.00 0.00 44 1018.9
20260509150037 13 31 3.2 6.4 0.00 0.00 0.00 46 1018.8
20260509144538 13 23 4.8 9.7 0.00 0.00 0.00 47 1018.7
20260509143039 13 14 6.4 11.3 0.00 0.00 0.00 49 1018.6
20260509141538 12 43 3.2 8.0 0.00 0.00 0.00 49 1018.4
20260509140027 12 78 4.8 8.0 0.00 0.00 0.00 50 1018.3
20260509134526 11 37 4.8 8.0 0.00 0.00 0.00 51 1018.3
20260509133025 11 80 1.6 4.8 0.00 0.00 0.00 53 1018.2
20260509131525 10 68 1.6 8.0 0.00 0.00 0.00 54 1018.0
20260509130020 10 35 4.8 9.7 0.00 0.00 0.00 56 1017.9
20260509124517 10 72 0.0 9.7 0.00 0.00 0.00 56 1017.6
20260509123020 9 238 1.6 3.2 0.00 0.00 0.00 57 1017.4
20260509121516 9 70 0.0 4.8 0.00 0.00 0.00 57 1017.4
20260509120010 10 8 3.2 4.8 0.00 0.00 0.00 57 1017.0
20260509114509 10 302 0.0 1.6 0.00 0.00 0.00 57 1016.9
20260509113008 9 330 0.0 4.8 0.00 0.00 0.00 57 1016.8
20260509111507 8 295 0.0 0.0 0.00 0.00 0.00 58 1016.5
20260509110004 8 295 0.0 1.6 0.00 0.00 0.00 58 1016.5
20260509104506 8 295 0.0 1.6 0.00 0.00 0.00 57 1016.4
20260509103103 8 245 0.0 1.6 0.00 0.00 0.00 58 1016.3
20260509101559 8 12 0.0 0.0 0.00 0.00 0.00 58 1016.0
20260509100110 8 303 0.0 0.0 0.00 0.00 0.00 59 1015.9
20260509094555 8 303 0.0 1.6 0.00 0.00 0.00 58 1015.8
20260509093050 8 312 0.0 0.0 0.00 0.00 0.00 57 1015.6
20260509091602 8 312 0.0 1.6 0.00 0.00 0.00 56 1015.6
20260509090043 9 290 0.0 0.0 0.00 0.00 0.00 55 1015.4
20260509084540 9 293 0.0 1.6 0.00 0.00 0.00 55 1015.3
20260509083043 10 338 0.0 3.2 0.00 0.00 0.00 53 1015.2
20260509081536 10 295 0.0 1.6 0.00 0.00 0.00 52 1015.2
20260509080039 10 283 0.0 1.6 0.00 0.00 0.00 53 1015.1
20260509074531 11 324 0.0 1.6 0.00 0.00 0.00 51 1015.0
20260509073027 11 276 0.0 3.2 0.00 0.00 0.00 50 1015.0
20260509071523 11 242 0.0 3.2 0.00 0.00 0.00 49 1015.0
20260509070051 12 11 0.0 6.4 0.00 0.00 0.00 47 1014.7
20260509064549 12 11 4.8 11.3 0.00 0.00 0.00 48 1014.6
20260509063054 12 347 3.2 6.4 0.00 0.00 0.00 47 1014.5
20260509061556 12 333 3.2 8.0 0.00 0.00 0.00 46 1014.5
20260509060040 13 20 6.4 9.7 0.00 0.00 0.00 45 1014.2
20260509054549 13 17 6.4 9.7 0.00 0.00 0.00 43 1014.2
20260509053053 13 12 6.4 9.7 0.00 0.00 0.00 41 1014.0
20260509051536 14 10 4.8 9.7 0.00 0.00 0.00 38 1013.9
20260509050034 15 18 9.7 16.1 0.00 0.00 0.00 36 1013.7
20260509044543 16 26 11.3 22.5 0.00 0.00 0.00 32 1013.4
20260509043004 15 24 9.7 20.9 0.00 0.00 0.00 32 1013.3
20260509041504 14 278 1.6 6.4 0.00 0.00 0.00 35 1013.0
20260509040001 15 340 1.6 6.4 0.00 0.00 0.00 34 1012.6
20260509034501 15 23 1.6 4.8 0.00 0.00 0.00 33 1012.3
20260509033100 15 333 3.2 8.0 0.00 0.00 0.00 32 1012.2
20260509031603 15 330 4.8 9.7 0.00 0.00 0.00 31 1011.8
20260509030057 16 4 3.2 6.4 0.00 0.00 0.00 31 1011.4
20260509024558 16 353 4.8 9.7 0.00 0.00 0.00 30 1011.2
20260509023055 17 355 4.8 9.7 0.00 0.00 0.00 29 1010.9
20260509021554 18 32 9.7 17.7 0.00 0.00 0.00 27 1010.9
20260509020033 19 13 12.9 19.3 0.00 0.00 0.00 26 1010.8